Location: Ostrava
(49.8330°N, 18.2830°E)
Time: 12:09:21
(UTC+01:00)

Lacrosse 5 - Visible Passes

Search period start: 24 January 2017 00:00
Search period end: 03 February 2017 00:00
Orbit: 718 x 722 km, 57.0° (Epoch: 21 January)

Date Brightness Start Highest point End Pass type
(mag) Time Alt. Az. Time Alt. Az. Time Alt. Az.
24 Jan 2.6 18:12:50 10° WNW 18:17:36 39° N 18:19:29 29° NE visible
24 Jan 3.5 19:56:03 10° NW 19:58:42 31° NW 19:58:42 31° NW visible
25 Jan 2.7 17:19:33 10° WNW 17:24:16 36° N 17:28:33 12° ENE visible
25 Jan 2.1 19:02:58 10° NW 19:07:46 56° NNE 19:07:46 56° NNE visible
25 Jan 4.6 20:46:07 10° WNW 20:46:59 15° WNW 20:46:59 15° WNW visible
26 Jan 2.3 18:09:52 10° WNW 18:14:45 45° NNE 18:16:53 29° ENE visible
26 Jan 3.1 19:52:57 10° WNW 19:56:06 38° WNW 19:56:06 38° WNW visible
27 Jan 2.6 17:16:40 10° WNW 17:21:26 39° N 17:26:03 11° ENE visible
27 Jan 1.7 18:59:52 10° NW 19:04:58 78° NNE 19:05:17 74° ENE visible
27 Jan 4.5 20:43:17 10° WNW 20:44:31 16° W 20:44:31 16° W visible
28 Jan 2.0 18:06:48 10° NW 18:11:49 57° NNE 18:14:33 26° E visible
28 Jan 3.0 19:49:56 10° WNW 19:53:47 40° WSW 19:53:47 40° WSW visible
29 Jan 2.3 17:13:41 10° WNW 17:18:34 45° NNE 17:23:27 10° E visible
29 Jan 2.0 18:56:46 10° WNW 19:01:51 72° SW 19:03:09 49° SSE visible
29 Jan 4.5 20:40:53 10° W 20:42:24 15° W 20:42:24 15° W visible
30 Jan 1.8 18:03:42 10° NW 18:08:48 78° NNE 18:12:39 18° ESE visible
30 Jan 3.4 19:47:06 10° WNW 19:51:25 28° SW 19:51:54 28° SW visible
31 Jan 2.1 17:10:37 10° NW 17:15:38 57° NNE 17:20:39 10° ESE visible
31 Jan 2.7 18:53:45 10° WNW 18:58:36 46° SW 19:01:34 22° SSE visible
01 Feb 2.1 18:00:36 10° WNW 18:05:40 73° SW 18:10:44 10° SE visible
01 Feb 4.3 19:44:41 10° W 19:47:55 17° WSW 19:50:44 11° SSW visible
02 Feb 1.9 17:07:31 10° NW 17:12:37 78° NNE 17:17:42 10° ESE visible
02 Feb 3.7 18:50:55 10° WNW 18:55:14 29° SW 18:59:33 10° S visible
